{"data":{"norad_id":66245,"intl_designator":"2025-245M","name":"STARLINK-35503","alt_names":[],"object_type":"PAYLOAD","status":"ACTIVE","operator":null,"country":"US","launch_date":"2025-10-29","launch_site_code":"AFETR","launch_vehicle":null,"mission":null,"orbit_class":"UNKNOWN","rcs_meters":null,"size_class":null,"mass_kg":null,"dimensions":null,"purposes":["comms"],"wikipedia_slug":null,"has_3d_model":false,"image_url":null,"decayed_at":null,"tle_current":{"epoch":"2026-09-20T20:07:54.835968Z","epoch_age_seconds":67437,"freshness":"FRESH","line1":"1 66245U 25245M   26263.83882912  .00015922  00000+0  48119-3 0  9995","line2":"2 66245  53.1587  96.1040 0002244  85.8279 274.2980 15.34410561 51104","mean_motion":15.34410561,"eccentricity":0.0002244,"inclination_deg":53.1587,"raan_deg":96.104,"arg_perigee_deg":85.8279,"mean_anomaly_deg":274.298,"bstar":0.00048119,"rev_number":5110,"period_min":93.847112148494,"perigee_km":461.13677336338,"apogee_km":464.20692837565,"semimajor_km":6840.8088508695,"source":"CELESTRAK","updated_at":"2026-09-21T09:00:35.848061Z"}}}